Plattsburgh, NY

10:47 AM EDT on October 21, 2017 (GMT -0400)
Plattsburgh International

Weather History for KPBG - January, 2013

Change the Weather History Date:

Monday, January 14, 2013

  Actual Average Record
Temperature  
Mean Temperature 44 °F 16 °F  
Max Temperature 53 °F 27 °F 54 °F (1950)
Min Temperature 35 °F 6 °F -23 °F (1957)
Degree Days  
Heating Degree Days 21 48  
Month to date heating degree days 590 661  
Since 1 July heating degree days 3249 3547  
Cooling Degree Days 0 0  
Month to date cooling degree days 0  
Year to date cooling degree days 0  
Moisture  
Dew Point 32 °F    
Average Humidity 71    
Maximum Humidity 96    
Minimum Humidity 45    
Precipitation  
Precipitation 0.01 in - 0.90 in (1979)
Month to date precipitation 0.18  
Year to date precipitation 0.18  
Sea Level Pressure  
Sea Level Pressure 30.03 in    
Wind  
Wind Speed 6 mph (WSW)    
Max Wind Speed 18 mph    
Max Gust Speed 29 mph    
Visibility 10 miles    
Events Rain    
T = Trace of Precipitation, MM = Missing Value Source: NWS Daily Summary

Daily Weather History Graph

Daily Weather History Graph

Search for Another Location

Airport or City:

Trip Planner

Search our weather history database for the weather conditions in past years. The results will help you decide how hot, cold, wet, or windy it might be!

Date:

Astronomy

Jan. 14, 2013 Rise Set
Actual Time 7:27 AM EST 4:38 PM EST
Civil Twilight 6:55 AM EST 5:11 PM EST
Nautical Twilight 6:19 AM EST 5:47 PM EST
Astronomical Twilight 5:44 AM EST 6:22 PM EST
Moon 8:50 AM EST (1/14) 8:32 PM EST (1/14)
Length of Visible Light 10h 16m
Length of Day
9h 10m
Waxing Crescent, 11% of the Moon is Illuminated
Jan 14
Waxing Crescent
Jan 18
First Quarter
Jan 26
Full
Feb 3
Last Quarter
Feb 10
New

Hourly Weather History & Observations

Time (EST) Temp. Windchill Dew Point Humidity Pressure Visibility Wind Dir Wind Speed Gust Speed Precip Events Conditions
12:53 AM 43.0 °F 37.7 °F 41.0 °F 93% 29.83 in 10.0 mi SSE 9.2 mph - N/A   Overcast
1:53 AM 41.0 °F 38.0 °F 39.9 °F 96% 29.80 in 9.0 mi South 4.6 mph - N/A   Mostly Cloudy
2:53 AM 43.0 °F - 41.0 °F 93% 29.76 in 10.0 mi Calm Calm - N/A   Clear
3:53 AM 44.1 °F 39.5 °F 41.0 °F 89% 29.73 in 10.0 mi South 8.1 mph - N/A   Mostly Cloudy
4:53 AM 44.1 °F 39.0 °F 41.0 °F 89% 29.74 in 10.0 mi SE 9.2 mph - N/A   Overcast
5:53 AM 41.0 °F - 39.9 °F 96% 29.80 in 10.0 mi Calm Calm - N/A   Overcast
6:13 AM 39.2 °F - 39.2 °F 100% 29.81 in 9.0 mi Calm Calm - 0.00 in Rain Light Rain
6:34 AM 44.6 °F 41.4 °F 42.8 °F 93% 29.82 in 10.0 mi SSE 5.8 mph - 0.00 in   Overcast
6:53 AM 46.9 °F - 44.1 °F 90% 29.85 in 10.0 mi South 5.8 mph - 0.00 in   Overcast
7:53 AM 52.0 °F - 42.1 °F 69% 29.91 in 10.0 mi Variable 5.8 mph - N/A   Overcast
8:53 AM 48.9 °F - 39.0 °F 69% 29.99 in 10.0 mi West 8.1 mph - N/A   Overcast
9:04 AM 48.2 °F - 37.4 °F 66% 29.99 in 10.0 mi West 8.1 mph - N/A   Overcast
9:34 AM 46.4 °F 43.5 °F 35.6 °F 66% 30.03 in 10.0 mi Variable 5.8 mph 26.5 mph 0.01 in   Overcast
9:53 AM 46.0 °F 40.6 °F 35.1 °F 66% 30.05 in 10.0 mi WNW 11.5 mph 21.9 mph 0.01 in   Overcast
10:53 AM 46.0 °F 41.0 °F 30.9 °F 56% 30.07 in 10.0 mi WNW 10.4 mph 28.8 mph N/A   Scattered Clouds
11:53 AM 46.0 °F 41.4 °F 28.9 °F 51% 30.10 in 10.0 mi WSW 9.2 mph 20.7 mph N/A   Scattered Clouds
12:53 PM 43.0 °F 36.0 °F 26.1 °F 51% 30.13 in 10.0 mi NW 13.8 mph 19.6 mph N/A   Clear
1:53 PM 42.1 °F 36.1 °F 24.1 °F 49% 30.16 in 10.0 mi WNW 10.4 mph 18.4 mph N/A   Scattered Clouds
2:53 PM 42.1 °F 36.6 °F 23.0 °F 47% 30.18 in 10.0 mi WNW 9.2 mph 16.1 mph N/A   Mostly Cloudy
3:53 PM 41.0 °F 37.1 °F 21.9 °F 47% 30.20 in 10.0 mi West 5.8 mph - N/A   Mostly Cloudy
5:53 PM 37.9 °F - 21.9 °F 53% 30.21 in 10.0 mi Calm Calm - N/A   Overcast
6:53 PM 37.9 °F - 21.9 °F 53% 30.25 in 10.0 mi Calm Calm - N/A   Overcast
7:53 PM 37.0 °F 32.4 °F 21.9 °F 54% 30.28 in 10.0 mi Variable 5.8 mph - N/A   Overcast
8:53 PM 37.0 °F 32.4 °F 21.9 °F 54% 30.28 in 10.0 mi WNW 5.8 mph - N/A   Overcast
9:53 PM 36.0 °F 33.3 °F 21.9 °F 57% 30.26 in 10.0 mi Variable 3.5 mph - N/A   Overcast
10:53 PM 36.0 °F 33.3 °F 21.9 °F 57% 30.29 in 10.0 mi West 3.5 mph - N/A   Overcast
11:53 PM 35.1 °F - 21.9 °F 59% 30.31 in 10.0 mi Calm Calm - N/A   Overcast